Probability
0 0 0 0 0 0 0 0 0 0 0 0 0 0 0 0 0 0 0 0 0 0 0 0 0 0 0 0 0 0 0 0 0 0 0 0 0 0 0 0 0 0 0
0 0 0 0 0 0 0 0 0 0 0 0 0 0 0 0 0 0 0 0 0 0 0 0 0 0 0 0 0 0 0 0 0 0 0 0 0 0 0 0 0 0 0
0 0 0 0 0 0 0 0 0 0 0 0 0 0 0 0 0 0 0 0 0 0 0 0 0 0 0 2 3 3 1 0 0 0 0 0 0 0 0 0 0 0 0
0 0 0 0 0 0 0 0 0 0 0 0 0 0 0 0 0 0 0 0 0 0 0 0 0 0 1 4 7 6 3 1 1 0 0 0 0 0 0 0 0 0 0
2 3 3 1 0 0 0 0 0 0 0 0 0 0 0 0 0 0 0 0 0 0 0 0 0 1 3 6 7 5 3 2 2 1 0 0 0 0 0 0 0 0 0
16 17 13 6 4 4 2 1 1 0 0 0 0 0 0 0 0 0 0 0 0 0 0 0 0 2 5 7 4 2 1 1 1 1 0 0 0 0 0 0 0 0 0
39 36 27 16 12 11 7 3 1 0 0 0 0 0 0 0 0 0 0 0 0 0 0 0 1 1 3 4 3 1 1 1 1 0 0 0 0 0 0 0 0 0 0
48 43 31 18 14 14 10 4 1 0 0 0 0 0 0 0 0 0 0 0 0 0 0 1 2 1 1 1 1 1 1 1 0 0 0 0 0 0 0 0 0 0 0
46 40 26 13 8 8 6 2 0 0 0 0 0 0 0 0 0 0 0 0 0 0 0 0 1 2 2 2 2 2 2 1 0 0 0 0 0 0 0 0 0 0 0
50 40 25 10 3 2 1 0 0 0 0 0 0 0 0 0 0 0 0 0 0 0 0 0 0 1 2 4 5 3 2 1 0 0 0 0 0 0 0 0 0 0 0
52 44 28 13 4 1 1 0 0 0 0 0 0 0 0 0 0 0 0 0 0 0 0 0 0 0 1 4 6 4 3 2 1 0 0 0 0 0 0 0 0 0 0
44 40 30 17 7 2 1 1 1 0 0 0 0 0 0 0 0 0 0 0 0 0 0 0 0 0 0 2 3 3 2 2 1 0 0 0 0 0 0 0 0 0 0
26 27 25 17 8 3 1 0 0 0 0 0 0 0 0 0 0 0 0 0 0 0 0 0 0 0 0 0 1 2 1 1 0 0 0 0 0 0 0 0 0 0 0
10 13 15 11 6 2 0 0 0 0 0 0 0 0 0 0 0 0 0 0 0 0 0 0 0 0 0 0 0 0 0 0 0 0 0 0 0 0 0 0 0 0 0
4 6 6 4 2 0 0 0 0 0 0 0 0 0 0 0 0 0 0 0 0 0 0 0 0 0 0 0 0 0 0 0 0 0 0 0 0 0 0 0 0 0 0
2 3 2 1 0 0 0 0 0 0 0 0 0 0 0 0 0 0 0 0 0 0 0 0 0 0 0 0 0 0 0 0 0 0 0 0 0 0 0 0 0 0 0
0 1 1 0 0 0 0 0 0 0 0 0 0 0 0 0 0 0 0 0 0 0 0 0 0 0 0 0 0 0 0 0 0 0 0 0 0 0 0 0 0 0 0
0 0 0 0 0 0 0 0 0 0 0 0 0 0 0 0 0 0 0 0 0 0 0 0 0 0 0 0 0 0 0 0 0 0 0 0 0 0 0 0 0 0 0
0 0 0 0 0 0 0 0 0 0 0 0 0 0 0 0 0 0 0 0 0 0 0 0 0 0 0 0 0 0 0 0 0 0 0 0 0 0 0 0 0 0 0
0 0 0 0 0 0 0 0 0 0 0 0 0 0 0 0 0 0 0 0 0 0 0 0 0 0 0 0 0 0 0 0 0 0 0 0 0 0 0 0 0 0 0
0 0 0 0 0 0 0 0 0 0 0 0 0 0 0 0 0 0 0 0 0 0 0 0 0 0 0 0 0 0 0 0 0 0 0 0 0 0 0 0 0 0 0
0 0 0 0 0 0 0 0 0 0 0 0 0 0 0 0 0 0 0 0 0 0 0 0 0 0 0 0 0 0 0 0 0 0 0 0 0 0 0 0 0 0 0
0 0 0 0 0 0 0 0 0 0 0 0 0 0 0 0 0 0 0 0 0 0 0 0 0 0 0 0 0 0 0 0 0 0 0 0 0 0 0 0 0 0 0
0 0 0 0 0 0 0 0 0 0 0 0 0 0 0 0 0 0 0 0 0 0 0 0 0 0 0 0 0 0 0 0 0 0 0 0 0 0 0 0 0 0 0
0 0 0 0 0 0 0 0 0 0 0 0 0 0 0 0 0 0 0 0 0 0 0 0 0 0 0 0 0 0 0 0 0 0 0 0 0 0 0 0 0 0 0
0 0 0 0 0 0 0 0 0 0 0 0 0 0 0 0 0 0 0 0 0 0 0 0 0 0 0 0 0 0 0 0 0 0 0 0 0 0 0 0 0 0 0
Wind_Speed
4 4 4 5 6 5 4 3 4 3 2 2 2 4 3 5 5 5 4 4 2 1 0 1 3 4 4 4 3 4 5 4 4 5 6 7 7 6 5 4 4 3 3
4 3 3 4 4 4 4 4 2 3 2 3 4 3 2 4 4 4 5 4 4 3 2 2 1 3 4 4 4 4 5 6 5 5 6 6 6 6 5 4 4 3 2
5 4 3 5 3 3 4 2 1 3 3 3 1 1 3 3 1 2 5 5 4 5 5 4 3 2 2 3 3 3 5 5 5 6 5 5 5 5 5 4 4 3 3
6 4 2 4 3 3 2 2 2 2 2 2 2 1 2 2 2 1 2 4 5 5 5 5 5 4 4 4 4 4 5 5 5 5 4 3 2 2 3 3 3 3 3
5 3 3 2 3 2 2 3 2 1 1 1 1 1 1 2 2 3 4 3 5 5 5 5 7 6 5 5 5 5 6 6 5 6 5 4 3 2 2 2 3 3 3
4 4 3 2 2 3 1 1 2 1 1 0 2 1 2 2 2 2 2 1 2 5 6 6 5 4 6 6 6 6 6 6 6 6 5 5 3 2 2 3 3 3 3
4 5 3 2 1 2 3 2 2 2 1 1 2 2 2 2 3 3 3 2 2 4 5 6 5 5 4 7 6 6 6 5 5 5 5 4 3 2 2 3 3 2 2
4 4 4 3 2 1 1 1 3 2 1 2 2 1 2 3 3 2 2 2 3 2 3 5 7 6 6 4 6 8 6 6 6 5 5 4 3 3 3 2 2 1 3
5 3 4 4 3 3 3 3 3 5 4 3 3 3 3 3 2 3 3 3 3 2 2 1 3 6 7 7 6 7 8 7 6 6 5 4 4 4 4 3 3 4 5
4 4 3 3 3 3 4 5 6 5 5 4 3 2 3 3 2 1 3 2 3 3 2 2 1 1 5 7 8 11 10 7 6 6 5 5 5 5 5 6 6 6 6
3 4 3 2 1 1 3 5 4 5 4 4 3 2 2 1 2 2 2 3 2 1 2 2 2 2 3 7 7 10 11 8 6 5 5 5 7 7 8 7 6 5 4
2 4 4 2 1 1 3 3 2 3 3 4 3 3 2 2 2 2 3 3 3 3 3 3 2 2 2 4 8 15 13 10 7 6 5 5 7 8 8 7 6 5 4
2 2 3 2 0 2 4 3 1 3 4 4 4 3 2 2 2 2 2 3 3 3 2 2 3 3 3 3 6 15 12 12 9 7 6 5 6 6 7 7 6 5 4
2 2 2 1 1 2 4 3 1 2 3 4 5 4 2 2 1 2 2 2 2 3 3 3 3 4 4 4 9 13 8 13 11 10 8 7 7 6 6 7 6 6 5
2 3 2 0 1 3 5 3 2 3 2 1 1 1 1 2 1 2 2 3 3 3 4 4 3 3 3 4 10 8 7 12 13 12 11 10 9 8 8 7 7 6 6
2 2 1 2 3 5 5 3 2 2 1 0 1 0 1 1 2 2 2 2 3 4 3 4 4 3 3 3 9 8 7 15 17 15 14 13 11 10 9 8 8 8 7
2 2 3 4 5 6 6 4 3 2 2 3 3 5 5 4 3 3 3 3 3 4 4 4 2 2 2 3 4 4 4 6 9 16 16 15 14 12 11 11 10 9 9
3 4 5 6 5 5 4 5 5 3 3 3 4 3 4 4 4 3 3 3 3 4 4 4 3 2 3 2 3 4 3 5 6 15 18 16 15 14 13 12 12 11 10
4 4 5 5 4 1 1 2 4 3 4 4 4 3 3 1 2 2 2 2 2 3 3 3 4 3 3 2 2 2 3 2 3 7 15 15 14 14 14 14 13 13 12
4 3 3 2 1 1 2 2 1 3 4 4 4 4 3 1 2 2 1 1 1 2 2 3 3 2 3 2 2 2 3 3 2 2 6 9 12 15 16 16 15 15 14
7 7 7 8 8 7 8 8 6 4 3 3 3 2 2 5 6 3 2 2 2 1 1 1 2 1 2 2 3 2 3 2 2 1 2 4 5 6 8 13 17 17 16
8 8 9 9 10 9 12 12 8 5 5 4 3 1 3 4 5 5 3 2 1 1 1 1 0 1 1 2 2 2 1 1 2 1 0 2 1 3 4 4 10 16 17
6 7 7 7 7 10 15 14 12 6 5 4 3 2 2 3 5 4 6 6 4 4 2 1 1 0 0 1 3 2 1 1 1 0 1 2 2 2 2 2 5 5 10
5 5 6 6 5 10 16 16 15 5 4 4 4 3 1 1 1 2 0 2 2 4 4 2 2 3 3 2 2 2 2 1 1 0 1 1 2 2 3 3 6 6 3
5 5 5 6 6 8 15 17 16 5 4 5 4 4 5 5 6 6 3 2 3 2 3 4 5 5 5 5 4 3 2 1 0 1 1 0 1 2 2 2 3 5 4
4 4 4 5 5 5 11 17 16 6 7 6 5 4 9 7 7 7 4 3 3 2 2 2 2 2 1 2 2 1 1 1 0 0 1 1 1 2 2 2 1 2 2
Wind_Direction
201 185 177 165 183 188 176 236 240 196 71 74 51 46 82 90 88 95 116 113 104 71 8 232 207 196 200 207 214 207 192 185 188 181 175 171 163 157 156 151 143 131 115
189 171 195 158 194 170 165 217 228 105 83 63 36 30 41 94 109 132 137 137 124 99 81 75 136 192 202 207 213 206 188 184 184 181 179 183 179 175 178 178 172 160 150
186 181 202 156 193 172 181 212 116 106 110 111 148 327 71 48 41 121 144 154 144 113 99 91 95 116 152 171 185 178 173 176 176 181 185 191 198 199 199 195 191 186 186
188 189 179 146 166 156 160 113 65 98 131 166 183 186 134 116 262 21 222 167 152 139 119 111 109 111 116 121 124 132 148 156 159 161 160 160 167 183 196 210 219 221 221
188 163 133 121 144 128 133 138 142 151 144 165 159 154 240 173 174 227 254 158 146 152 141 130 119 115 120 125 125 126 130 137 136 131 127 125 130 150 200 227 240 237 222
164 122 119 128 131 128 123 110 130 104 54 59 280 211 201 183 223 235 310 346 193 156 148 150 143 129 128 130 133 134 134 137 137 134 132 134 144 175 213 229 230 224 218
149 125 127 143 116 137 155 169 111 92 31 336 322 332 322 255 244 203 195 255 265 146 150 167 166 153 144 129 130 138 142 143 145 143 138 136 146 174 199 219 221 226 227
164 152 150 155 150 117 116 135 120 136 212 245 218 202 319 322 294 264 194 179 274 188 208 198 169 159 161 150 141 132 127 133 136 135 131 134 145 166 180 195 197 146 110
164 156 163 166 170 167 178 196 184 180 203 232 230 172 177 228 280 301 251 205 222 238 231 260 188 169 155 147 146 135 133 138 140 138 133 137 149 158 166 172 145 117 104
150 144 141 152 171 174 196 213 211 199 198 216 239 226 209 196 173 281 313 276 229 207 211 277 284 177 154 143 150 151 145 146 152 154 147 142 144 147 143 129 122 117 111
105 109 106 97 110 185 220 233 225 199 191 204 216 217 244 273 230 188 253 295 305 231 195 247 261 256 159 146 151 160 157 158 165 173 170 161 155 146 139 134 136 139 141
78 86 94 89 39 316 269 249 198 185 186 204 212 207 198 213 233 198 217 247 265 271 228 210 230 239 189 156 163 160 162 166 174 181 185 181 172 164 160 159 163 173 193
76 70 93 110 98 307 292 278 199 196 201 203 207 214 213 219 218 196 201 240 253 267 258 204 207 216 199 141 147 162 168 170 178 185 188 189 186 184 183 184 192 203 215
73 51 71 96 123 279 276 266 267 233 222 201 201 201 192 220 207 203 199 203 247 263 257 243 211 204 199 167 169 173 176 178 183 190 195 199 200 200 203 207 212 215 220
47 35 30 343 227 253 262 247 205 254 247 265 175 165 178 193 206 221 216 194 191 225 245 243 233 212 194 176 168 182 175 188 191 196 198 201 204 209 214 217 218 216 218
19 3 322 262 236 234 238 237 222 255 292 248 105 341 269 229 219 220 233 222 203 203 237 243 226 217 188 177 169 186 192 190 198 199 201 203 206 211 216 220 222 219 220
302 282 270 256 239 230 223 202 209 212 234 257 214 210 218 215 210 212 223 228 226 210 227 253 233 212 185 178 165 216 207 183 197 204 205 206 207 210 216 222 225 224 225
267 270 268 267 256 224 212 181 188 203 224 260 268 251 219 199 204 216 215 228 232 224 215 239 240 217 212 205 181 212 220 198 195 205 207 209 210 211 216 222 226 227 227
267 259 253 255 266 262 147 150 176 200 226 238 247 263 273 225 196 207 219 234 238 245 223 223 239 224 223 223 215 234 247 245 235 201 202 210 214 215 218 222 225 227 228
288 302 319 303 308 32 22 353 289 220 234 242 238 230 231 186 96 63 34 6 291 260 243 228 236 230 220 213 186 214 247 249 248 213 195 205 215 221 225 227 229 230 230
19 18 16 18 25 39 26 13 354 328 283 269 261 259 115 103 104 94 67 20 358 319 270 233 236 228 206 177 201 202 216 248 262 234 205 207 203 213 223 232 235 235 232
34 32 31 40 45 34 17 15 0 333 318 300 281 255 143 152 150 158 176 205 258 330 351 353 155 209 239 205 183 165 185 188 257 320 8 277 216 226 227 221 233 231 231
49 42 36 44 55 32 17 9 357 321 301 299 291 277 224 143 163 193 201 215 222 221 234 348 17 159 217 184 156 158 182 185 203 6 40 312 326 311 316 349 337 254 232
54 55 36 31 50 36 17 8 354 320 296 304 306 307 313 154 124 41 123 221 206 184 203 215 57 65 70 79 112 142 148 123 38 60 102 296 337 342 358 10 31 42 20
35 55 42 31 34 33 20 13 5 344 352 344 335 15 32 59 55 39 12 2 51 93 111 90 93 94 85 74 69 73 79 85 311 264 111 12 343 339 348 2 16 27 20
20 59 59 45 38 33 24 21 14 8 4 353 348 47 67 69 58 33 13 24 53 42 69 135 134 142 149 140 111 78 109 116 320 319 112 110 358 0 344 330 331 345 352